Regional Weather Roundup
Issued by NWS

Home | Current Version | Previous Version | Graphics & Text | Print | Product List | Glossary Off
Versions: 1 2 3 4 5 6 7 8 9 10 11 12 13 14 15 16 17 18 19 20 21 22 23 24 25 26 27 28 29 30 31 32 33 34 35 36 37 38 39 40 41 42 43 44 45 46 47 48 49 50

000
ASUS43 KTOP 271808
RWRKS

WEATHER ROUNDUP FOR KANSAS
NATIONAL WEATHER SERVICE GOODLAND KS
100 PM CDT WED MAY 27 2015

NOTE:  "FAIR" INDICATES FEW OR NO CLOUDS BELOW 12,000 FEET WITH NO
SIGNIFICANT WEATHER AND/OR OBSTRUCTIONS TO VISIBILITY.

KSZ001>006-013>018-027>032-041>047-271900-
NORTHWEST KANSAS

CITY           SKY/WX    TMP DP  RH WIND       PRES   REMARKS
GOODLAND       MOSUNNY   74  59  59 S18       30.07F
6HR MIN TEMP:  54; 6HR MAX TEMP:  74; 6HR PCP:  0.01;

HAYS           PTSUNNY   73  57  56 SE12      30.10R
HILL CITY      PTSUNNY   71  58  63 VRB6      30.11R
6HR MIN TEMP:  52; 6HR MAX TEMP:  72; 6HR PCP: TRACE;

RUSSELL        PTSUNNY   76  59  55 SE12      30.08S
6HR MIN TEMP:  55; 6HR MAX TEMP:  76;

$$

KSZ061>065-074>080-084>089-271900-
SOUTHWEST KANSAS

CITY           SKY/WX    TMP DP  RH WIND       PRES   REMARKS
DODGE CITY     FAIR      76  64  66 SE14      30.09S
6HR MIN TEMP:  60; 6HR MAX TEMP:  76; 6HR PCP: TRACE;

ELKHART          N/A     80  57  45 S8          N/A
GARDEN CITY    FAIR      79  56  45 S14       30.05F
6HR MIN TEMP:  59; 6HR MAX TEMP:  79;

GREAT BEND     PTSUNNY   73  59  60 E13       30.10R
LIBERAL        FAIR      82  55  39 SE16G22   30.06F
PRATT          FAIR      75  61  60 SE13      30.11S
$$

KSZ066>073-081>083-090>101-271900-
SOUTHEAST KANSAS

CITY           SKY/WX    TMP DP  RH WIND       PRES   REMARKS
CHANUTE        FAIR      80  62  54 VRB3      30.11S
6HR MIN TEMP:  63; 6HR MAX TEMP:  80;

COFFEYVILLE    FAIR      80  67  64 VRB3      30.09F
6HR MIN TEMP:  62; 6HR MAX TEMP:  80;

HUTCHINSON     PTSUNNY   74  59  59 SE10      30.11S
6HR MIN TEMP:  61; 6HR MAX TEMP:  77;

MEDICINE LODGE   N/A     79  62  56 SE9       30.08S
NEWTON         FAIR      73  57  56 SE10      30.14S
PARSONS        FAIR      81  67  62 VRB6      30.11S
6HR MIN TEMP:  63; 6HR MAX TEMP:  81;

WICHITA INTL   PTSUNNY   78  63  59 SE12      30.10R
6HR MIN TEMP:  63; 6HR MAX TEMP:  79;

WICHITA JABRA  FAIR      78  64  61 SE10      30.10S
6HR MIN TEMP:  61; 6HR MAX TEMP:  78;

WICHITA MCCONL FAIR      79  64  61 SE10      30.10S
WINFIELD       FAIR      79  66  64 SE12      30.10S
6HR MIN TEMP:  61; 6HR MAX TEMP:  79;

$$

KSZ007>012-019>026-033>040-048>060-102>105-271900-
NORTHEAST KANSAS

CITY           SKY/WX    TMP DP  RH WIND       PRES   REMARKS
CONCORDIA      FAIR      78  50  37 E9        30.10S
6HR MIN TEMP:  56; 6HR MAX TEMP:  78;

EMPORIA        FAIR      77  58  51 SE10      30.11S
6HR MIN TEMP:  59; 6HR MAX TEMP:  77;

LAWRENCE       FAIR      78  48  34 CALM      30.11R
6HR MIN TEMP:  59; 6HR MAX TEMP:  79;

MANHATTAN      FAIR      79  52  38 E9        30.09S
6HR MIN TEMP:  55; 6HR MAX TEMP:  79;

MARYSVILLE     FAIR      79  52  38 SE6       30.10S
OLATHE IND     FAIR      78  52  40 SE6       30.12R
6HR MIN TEMP:  61; 6HR MAX TEMP:  78;

OLATHE EXE     FAIR      77  55  46 VRB3      30.11R
6HR MIN TEMP:  62; 6HR MAX TEMP:  78;

SALINA         FAIR      79  55  43 SE9       30.10S
6HR MIN TEMP:  58; 6HR MAX TEMP:  79;

TOPEKA BILLARD FAIR      79  53  40 VRB7      30.10S
6HR MIN TEMP:  58; 6HR MAX TEMP:  80;

TOPEKA FORBES  FAIR      79  53  40 VRB3      30.11S
6HR MIN TEMP:  59; 6HR MAX TEMP:  79;

$$



USA.gov is the U.S. government's official web portal to all federal, state and local government web resources and services.